DW9840 Santa Rosa CA US current weather conditions

sailwx.info

Wind from 134 at 0 knots gusting 6

Air temperature 12.8° C
Dewpoint 8.5° C

Last reported at 2019-Dec-11 00:01 UTC.
Time now 2019-Dec-11 00:57 UTC

Location: N 38°25' W 122°42'.
View on Google Maps.

See reports from other nearby stations

  
Tides and Currents Weather Stations Pressure Air Temp Water Temp Dewpoint Dewpoint Depression Visibility Wind Speed Wind Dir Waves Ship Positions
date/time (UTC)wind fromknots sea level pressurealtimeterstation pressurevisibilityair tempwater tempwave heightnotes
2019-Dec-11 00:01 134 0 gusting 6 12.8
2019-Dec-10 23:46 096 0 gusting 6 12.8
2019-Dec-10 23:31 124 0 gusting 4 12.8
2019-Dec-10 23:16 076 13.3
2019-Dec-10 23:00 053 13.3
2019-Dec-10 22:45 152 0 gusting 2 13.3
2019-Dec-10 22:30 200 13.3
2019-Dec-10 22:20 226 0 gusting 3 13.3
2019-Dec-10 22:04 205 13.3
2019-Dec-10 21:50 105 2 gusting 5 13.3
2019-Dec-10 21:32 227 0 gusting 6 13.3
2019-Dec-10 21:16 203 0 gusting 5 12.8
2019-Dec-10 21:01 094 0 gusting 2 12.8
2019-Dec-10 20:47 097 1 gusting 6 12.8
2019-Dec-10 20:30 105 0 gusting 4 12.8
2019-Dec-10 20:17 323 13.3
2019-Dec-10 20:01 056 12.8
2019-Dec-10 19:46 253 12.8
2019-Dec-10 19:30 240 12.8
2019-Dec-10 19:15 208 12.8
2019-Dec-10 19:02 245 12.2
2019-Dec-10 18:47 235 12.2
2019-Dec-10 18:33 207 12.2
2019-Dec-10 18:17 245 12.2
2019-Dec-10 18:03 166 12.2
2019-Dec-10 17:47 253 12.2
2019-Dec-10 17:32 226 12.2
2019-Dec-10 17:16 187 12.8
2019-Dec-10 17:00 125 0 gusting 4 12.2
2019-Dec-10 16:46 084 12.2
2019-Dec-10 16:31 135 12.2
2019-Dec-10 16:15
2019-Dec-10 16:00
2019-Dec-10 15:45
2019-Dec-10 15:32
2019-Dec-10 15:17
2019-Dec-10 15:01
2019-Dec-10 14:47
2019-Dec-10 14:31
2019-Dec-10 14:16
2019-Dec-10 13:46
2019-Dec-10 13:33
2019-Dec-10 13:15
2019-Dec-10 13:00
2019-Dec-10 12:45
2019-Dec-10 12:30
2019-Dec-10 12:15
2019-Dec-10 12:03
2019-Dec-10 11:48
2019-Dec-10 11:32
2019-Dec-10 11:16
2019-Dec-10 11:01
2019-Dec-10 10:47
2019-Dec-10 10:31
2019-Dec-10 10:15
2019-Dec-10 10:00
2019-Dec-10 09:45
2019-Dec-10 09:30 174 11.1
2019-Dec-10 09:16 174 12.2
2019-Dec-10 09:00 175 12.2
2019-Dec-10 08:47 174 12.2
2019-Dec-10 08:31 077 12.2
2019-Dec-10 08:16 076 12.2
2019-Dec-10 08:01 272 12.2
2019-Dec-10 07:46 087 12.2
2019-Dec-10 07:31 332 12.2
2019-Dec-10 07:16 001 0 gusting 2 12.2
2019-Dec-10 07:01 071 0 gusting 3 12.2
2019-Dec-10 06:46 360 12.8
2019-Dec-10 06:31 037 12.8
2019-Dec-10 06:15 354 12.8
2019-Dec-10 06:00 023 12.8
2019-Dec-10 05:45 020 2 gusting 3 12.8
2019-Dec-10 05:30 051 1 gusting 3 12.8
2019-Dec-10 05:17 004 1 gusting 3 12.8
2019-Dec-10 05:03 285 12.8
2019-Dec-10 04:46 285 13.3
2019-Dec-10 04:31 291 13.3
2019-Dec-10 04:16 323 0 gusting 3 13.9
2019-Dec-10 04:01 270 13.9
2019-Dec-10 03:46 314 13.9
2019-Dec-10 03:31 227 13.9
2019-Dec-10 03:15 228 13.9
2019-Dec-10 02:45 227 13.9
2019-Dec-10 02:30 227 13.3
2019-Dec-10 02:15 229 13.3
2019-Dec-10 02:02 154 13.3
2019-Dec-10 01:46 011 13.3
2019-Dec-10 01:31 012 13.3
2019-Dec-10 01:16 012 13.3
2019-Dec-10 01:00 011 13.3
2019-Dec-10 00:46 011 13.3
2019-Dec-10 00:31 344 13.3
2019-Dec-10 00:15 035 0 gusting 3 13.3
2019-Dec-10 00:01 043 1 gusting 2 13.3
2019-Dec-09 23:45 013 13.3
2019-Dec-09 23:30 041 0 gusting 3 13.3
2019-Dec-09 23:15 034 1 gusting 3 13.9
2019-Dec-09 23:00 038 13.9
2019-Dec-09 22:45 347 13.9
2019-Dec-09 22:31 100 13.9
2019-Dec-09 22:16 072 13.3
2019-Dec-09 22:01 238 13.3
2019-Dec-09 21:46 226 13.3
2019-Dec-09 21:31 219 13.3
2019-Dec-09 21:15 113 12.8
2019-Dec-09 21:01 198 0 gusting 3 12.8
2019-Dec-09 20:45 159 12.8
2019-Dec-09 20:30 214 12.8
2019-Dec-09 20:15 238 12.2
2019-Dec-09 20:00 214 12.2
2019-Dec-09 19:45 247 0 gusting 4 12.2
2019-Dec-09 19:30 232 0 gusting 3 12.2
2019-Dec-09 19:16 208 0 gusting 4 12.2
2019-Dec-09 19:02 231 0 gusting 3 12.2
2019-Dec-09 18:46 255 12.2
2019-Dec-09 18:30 121 11.7
2019-Dec-09 18:16 193 11.7
2019-Dec-09 18:00 231 11.7
2019-Dec-09 17:46 224 11.7
2019-Dec-09 17:31 271 11.1
2019-Dec-09 17:15 260 11.1
2019-Dec-09 17:00 280 11.1
2019-Dec-09 16:46 136 10.6
2019-Dec-09 16:30 115 10.6
2019-Dec-09 16:15
2019-Dec-09 16:03
2019-Dec-09 15:47
2019-Dec-09 15:31
2019-Dec-09 15:16
2019-Dec-09 15:01
2019-Dec-09 14:46
2019-Dec-09 14:31
2019-Dec-09 14:16
2019-Dec-09 14:01
2019-Dec-09 13:45
2019-Dec-09 13:30
2019-Dec-09 13:15
2019-Dec-09 13:00
2019-Dec-09 12:45
2019-Dec-09 12:32
2019-Dec-09 12:17
2019-Dec-09 12:02
2019-Dec-09 11:46
2019-Dec-09 11:31 116 8.3
2019-Dec-09 11:16 118 9.4
2019-Dec-09 11:00 101 9.4
2019-Dec-09 10:45 098 9.4
2019-Dec-09 10:30 099 9.4
2019-Dec-09 10:15 098 9.4
2019-Dec-09 10:00 097 9.4
2019-Dec-09 09:45 096 9.4
2019-Dec-09 09:30 097 10.0
2019-Dec-09 09:15 097 10.0
2019-Dec-09 09:02 096 10.0
2019-Dec-09 08:46 097 10.6
2019-Dec-09 08:32 116 10.6
2019-Dec-09 08:17 115 11.1
2019-Dec-09 08:01 115 11.1
2019-Dec-09 07:45 115 11.1
2019-Dec-09 07:30 115 11.1
2019-Dec-09 07:16 115 11.1
2019-Dec-09 07:00 115 11.1
2019-Dec-09 06:45 115 11.7
2019-Dec-09 06:30 115 11.7
2019-Dec-09 06:15 116 11.7
2019-Dec-09 06:00 116 12.2
2019-Dec-09 05:47 116 12.2
2019-Dec-09 05:31 115 12.8
2019-Dec-09 05:16 117 12.8
2019-Dec-09 05:02 117 12.8
2019-Dec-09 04:46 117 12.8
2019-Dec-09 04:31 124 12.8
2019-Dec-09 04:15 124 12.8
2019-Dec-09 04:00 124 12.8
2019-Dec-09 03:45 124 13.3
2019-Dec-09 03:31 124 13.3
2019-Dec-09 03:15 124 13.9
2019-Dec-09 03:00 124 13.9
2019-Dec-09 02:45 131 13.9
2019-Dec-09 02:30 120 14.4
2019-Dec-09 02:16 103 14.4
2019-Dec-09 02:02 129 14.4
2019-Dec-09 01:46 136 14.4
2019-Dec-09 01:31 219 15.0
2019-Dec-09 01:15 205 15.6
2019-Dec-09 01:01 207 16.1
2019-Dec-09 00:45 221 16.7
2019-Dec-09 00:30 060 16.7
2019-Dec-09 00:15 121 17.2